Terug naar catalogus

O3BF03

ActiefCommunicatieMEO
NORAD 56368·PAYLOAD·🇱🇺 Luxembourg

Gelanceerd Apr 28, 2023 vanaf Cape Canaveral Space Force Station

Loading…

Volgende Passages (komende 24 uur)

TLE

VersSource: CelesTrak SupGP

Epoch: Sep 13, 2026, 13:00 UTC

1 56368C 23059B   26256.54166667  .00000000  00000+0  00000+0 0  2563
2 56368   0.0606 342.3578 0006421 183.9843 162.0600  5.00115610    18

Volg O3BF03 in realtime met AllMySat

Download on the App Store